| time (UTC) | temp C | wind direction | speed KPH | gust KPH | rain 1hr cm | rain 24hr cm | rain mn cm | humidity % | barometer mb |
| 20260505130258 | 18 | 311 | 0.0 | 17.7 | 0.00 | 0.00 | 0.00 | 59 | 1012.1 |
| 20260505124748 | 18 | 199 | 6.4 | 9.7 | 0.00 | 0.00 | 0.00 | 58 | 1012.2 |
| 20260505124245 | 18 | 48 | 0.0 | 8.0 | 0.00 | 0.00 | 0.00 | 60 | 1012.5 |
| 20260505123740 | 18 | 211 | 3.2 | 9.7 | 0.00 | 0.00 | 0.00 | 62 | 1012.4 |
| 20260505123237 | 17 | 135 | 1.6 | 8.0 | 0.00 | 0.00 | 0.00 | 61 | 1012.2 |
| 20260505122734 | 17 | 234 | 4.8 | 4.8 | 0.00 | 0.00 | 0.00 | 64 | 1012.1 |
| 20260505122231 | 17 | 145 | 1.6 | 6.4 | 0.00 | 0.00 | 0.00 | 66 | 1012.3 |
| 20260505121728 | 17 | 206 | 14.5 | 14.5 | 0.00 | 0.00 | 0.00 | 64 | 1012.3 |
| 20260505121224 | 16 | 187 | 4.8 | 9.7 | 0.00 | 0.00 | 0.00 | 67 | 1012.3 |
| 20260505120721 | 16 | 222 | 6.4 | 8.0 | 0.00 | 0.00 | 0.00 | 68 | 1012.3 |
| 20260505120217 | 16 | 206 | 0.0 | 6.4 | 0.00 | 0.00 | 0.00 | 69 | 1012.2 |
| 20260505115715 | 16 | 137 | 0.0 | 3.2 | 0.00 | 0.00 | 0.00 | 70 | 1012.0 |
| 20260505115214 | 15 | 80 | 3.2 | 4.8 | 0.00 | 0.00 | 0.00 | 70 | 1012.1 |
| 20260505114711 | 15 | 65 | 1.6 | 3.2 | 0.00 | 0.00 | 0.00 | 71 | 1011.8 |
| 20260505114206 | 15 | 30 | 1.6 | 3.2 | 0.00 | 0.00 | 0.00 | 73 | 1011.7 |
| 20260505113703 | 15 | 25 | 0.0 | 3.2 | 0.00 | 0.00 | 0.00 | 74 | 1011.8 |
| 20260505113200 | 14 | 44 | 3.2 | 4.8 | 0.00 | 0.00 | 0.00 | 74 | 1011.8 |
| 20260505112656 | 13 | 33 | 3.2 | 3.2 | 0.00 | 0.00 | 0.00 | 74 | 1011.6 |
| 20260505112154 | 14 | 36 | 1.6 | 3.2 | 0.00 | 0.00 | 0.00 | 75 | 1011.6 |
| 20260505111653 | 14 | 52 | 1.6 | 3.2 | 0.00 | 0.00 | 0.00 | 73 | 1011.8 |
| 20260505111149 | 14 | 18 | 0.0 | 4.8 | 0.00 | 0.00 | 0.00 | 74 | 1011.7 |
| 20260505110646 | 14 | 23 | 3.2 | 3.2 | 0.00 | 0.00 | 0.00 | 74 | 1011.6 |
| 20260505110143 | 13 | 341 | 0.0 | 3.2 | 0.00 | 0.00 | 0.00 | 74 | 1011.5 |
| 20260505102119 | 13 | 27 | 3.2 | 3.2 | 0.00 | 0.00 | 0.00 | 77 | 1011.2 |
| 20260505101618 | 13 | 29 | 3.2 | 4.8 | 0.00 | 0.00 | 0.00 | 77 | 1011.1 |
| 20260505101113 | 13 | 311 | 0.0 | 3.2 | 0.00 | 0.00 | 0.00 | 75 | 1010.8 |
| 20260505100610 | 13 | 17 | 3.2 | 4.8 | 0.00 | 0.00 | 0.00 | 75 | 1011.4 |
| 20260505100107 | 13 | 32 | 3.2 | 3.2 | 0.00 | 0.00 | 0.00 | 75 | 1010.8 |
| 20260505095603 | 13 | 335 | 1.6 | 3.2 | 0.00 | 0.00 | 0.00 | 75 | 1011.2 |
| 20260505095100 | 13 | 299 | 0.0 | 3.2 | 0.00 | 0.00 | 0.00 | 76 | 1011.0 |
| 20260505094556 | 13 | 228 | 3.2 | 3.2 | 0.00 | 0.00 | 0.00 | 76 | 1011.0 |
| 20260505094052 | 13 | 265 | 0.0 | 3.2 | 0.00 | 0.00 | 0.00 | 77 | 1011.2 |
| 20260505093549 | 13 | 175 | 0.0 | 3.2 | 0.00 | 0.00 | 0.00 | 76 | 1011.0 |
| 20260505093046 | 13 | 24 | 3.2 | 3.2 | 0.00 | 0.00 | 0.00 | 77 | 1010.9 |
| 20260505092544 | 13 | 44 | 3.2 | 3.2 | 0.00 | 0.00 | 0.00 | 76 | 1011.0 |
| 20260505092042 | 13 | 34 | 3.2 | 4.8 | 0.00 | 0.00 | 0.00 | 76 | 1011.0 |
| 20260505091538 | 13 | 338 | 3.2 | 3.2 | 0.00 | 0.00 | 0.00 | 73 | 1010.9 |
| 20260505091037 | 14 | 57 | 3.2 | 3.2 | 0.00 | 0.00 | 0.00 | 70 | 1010.8 |
| 20260505090534 | 14 | 29 | 3.2 | 3.2 | 0.00 | 0.00 | 0.00 | 69 | 1010.8 |
| 20260505090032 | 14 | 355 | 1.6 | 3.2 | 0.00 | 0.00 | 0.00 | 68 | 1010.5 |
| 20260505085530 | 14 | 337 | 0.0 | 4.8 | 0.00 | 0.00 | 0.00 | 68 | 1010.9 |
| 20260505085028 | 14 | 350 | 3.2 | 3.2 | 0.00 | 0.00 | 0.00 | 68 | 1010.2 |
| 20260505084526 | 15 | 47 | 3.2 | 4.8 | 0.00 | 0.00 | 0.00 | 67 | 1010.5 |
| 20260505084023 | 15 | 6 | 3.2 | 3.2 | 0.00 | 0.00 | 0.00 | 67 | 1010.5 |
| 20260505083520 | 15 | 16 | 1.6 | 6.4 | 0.00 | 0.00 | 0.00 | 66 | 1010.6 |
| 20260505083017 | 15 | 344 | 1.6 | 4.8 | 0.00 | 0.00 | 0.00 | 66 | 1010.7 |
| 20260505082512 | 15 | 358 | 1.6 | 6.4 | 0.00 | 0.00 | 0.00 | 65 | 1010.5 |
| 20260505082009 | 15 | 305 | 1.6 | 3.2 | 0.00 | 0.00 | 0.00 | 66 | 1010.7 |
| 20260505081506 | 15 | 342 | 3.2 | 4.8 | 0.00 | 0.00 | 0.00 | 66 | 1010.7 |
| 20260505081003 | 15 | 31 | 1.6 | 4.8 | 0.00 | 0.00 | 0.00 | 66 | 1010.7 |
| 20260505080459 | 15 | 333 | 1.6 | 3.2 | 0.00 | 0.00 | 0.00 | 66 | 1010.5 |
| 20260505075955 | 15 | 29 | 0.0 | 3.2 | 0.00 | 0.00 | 0.00 | 65 | 1010.3 |
| 20260505075451 | 15 | 20 | 3.2 | 3.2 | 0.00 | 0.00 | 0.00 | 65 | 1010.5 |
| 20260505074949 | 15 | 354 | 1.6 | 3.2 | 0.00 | 0.00 | 0.00 | 65 | 1010.6 |
| 20260505074447 | 15 | 344 | 0.0 | 3.2 | 0.00 | 0.00 | 0.00 | 65 | 1010.3 |
| 20260505073943 | 15 | 0 | 1.6 | 3.2 | 0.00 | 0.00 | 0.00 | 64 | 1010.3 |
| 20260505073441 | 15 | 10 | 1.6 | 3.2 | 0.00 | 0.00 | 0.00 | 64 | 1010.3 |
| 20260505072938 | 15 | 22 | 3.2 | 3.2 | 0.00 | 0.00 | 0.00 | 64 | 1010.1 |
| 20260505072434 | 15 | 16 | 1.6 | 3.2 | 0.00 | 0.00 | 0.00 | 64 | 1010.1 |
| 20260505071930 | 16 | 31 | 3.2 | 3.2 | 0.00 | 0.00 | 0.00 | 63 | 1010.3 |
| 20260505071426 | 16 | 32 | 1.6 | 3.2 | 0.00 | 0.00 | 0.00 | 64 | 1010.2 |
| 20260505070925 | 16 | 22 | 0.0 | 1.6 | 0.00 | 0.00 | 0.00 | 64 | 1010.3 |
| 20260505070421 | 16 | 33 | 3.2 | 3.2 | 0.00 | 0.00 | 0.00 | 63 | 1010.0 |
| 20260505065917 | 16 | 2 | 1.6 | 1.6 | 0.00 | 0.00 | 0.00 | 63 | 1010.2 |
| 20260505065413 | 16 | 45 | 3.2 | 3.2 | 0.00 | 0.00 | 0.00 | 63 | 1010.1 |
| 20260505064910 | 16 | 19 | 1.6 | 3.2 | 0.00 | 0.00 | 0.00 | 62 | 1010.0 |
| 20260505064407 | 16 | 203 | 0.0 | 1.6 | 0.00 | 0.00 | 0.00 | 62 | 1010.3 |
| 20260505063906 | 16 | 19 | 0.0 | 3.2 | 0.00 | 0.00 | 0.00 | 62 | 1010.2 |
| 20260505063402 | 16 | 22 | 1.6 | 3.2 | 0.00 | 0.00 | 0.00 | 62 | 1010.3 |
| 20260505062858 | 16 | 239 | 3.2 | 3.2 | 0.00 | 0.00 | 0.00 | 62 | 1010.5 |
| 20260505062355 | 16 | 24 | 3.2 | 3.2 | 0.00 | 0.00 | 0.00 | 62 | 1010.6 |
| 20260505061852 | 16 | 3 | 1.6 | 3.2 | 0.00 | 0.00 | 0.00 | 61 | 1010.6 |
| 20260505061351 | 16 | 353 | 0.0 | 3.2 | 0.00 | 0.00 | 0.00 | 61 | 1010.9 |
| 20260505060848 | 16 | 62 | 0.0 | 3.2 | 0.00 | 0.00 | 0.00 | 60 | 1010.8 |
| 20260505060344 | 16 | 49 | 0.0 | 3.2 | 0.00 | 0.00 | 0.00 | 60 | 1010.7 |
| 20260505055840 | 16 | 12 | 1.6 | 3.2 | 0.00 | 0.00 | 0.00 | 60 | 1010.5 |
| 20260505055336 | 16 | 43 | 3.2 | 4.8 | 0.00 | 0.00 | 0.00 | 60 | 1010.7 |
| 20260505054834 | 16 | 325 | 0.0 | 4.8 | 0.00 | 0.00 | 0.00 | 59 | 1010.5 |
| 20260505054331 | 16 | 317 | 3.2 | 3.2 | 0.00 | 0.00 | 0.00 | 60 | 1010.6 |
| 20260505053829 | 16 | 224 | 0.0 | 3.2 | 0.00 | 0.00 | 0.00 | 60 | 1010.7 |
| 20260505053326 | 16 | 5 | 0.0 | 3.2 | 0.00 | 0.00 | 0.00 | 59 | 1010.8 |
| 20260505052822 | 16 | 129 | 0.0 | 4.8 | 0.00 | 0.00 | 0.00 | 60 | 1010.7 |
| 20260505052319 | 17 | 0 | 0.0 | 3.2 | 0.00 | 0.00 | 0.00 | 59 | 1010.8 |
| 20260505051817 | 16 | 314 | 1.6 | 3.2 | 0.00 | 0.00 | 0.00 | 59 | 1010.6 |
| 20260505051314 | 16 | 26 | 3.2 | 3.2 | 0.00 | 0.00 | 0.00 | 59 | 1010.5 |
| 20260505050812 | 16 | 60 | 0.0 | 3.2 | 0.00 | 0.00 | 0.00 | 59 | 1010.5 |
| 20260505050310 | 16 | 40 | 1.6 | 3.2 | 0.00 | 0.00 | 0.00 | 59 | 1010.6 |
| 20260505041740 | 17 | 335 | 1.6 | 3.2 | 0.00 | 0.00 | 0.00 | 57 | 1010.3 |
| 20260505041237 | 17 | 349 | 0.0 | 3.2 | 0.00 | 0.00 | 0.00 | 57 | 1010.2 |
| 20260505040734 | 17 | 52 | 0.0 | 3.2 | 0.00 | 0.00 | 0.00 | 56 | 1010.2 |
| 20260505040232 | 17 | 138 | 0.0 | 3.2 | 0.00 | 0.00 | 0.00 | 56 | 1010.3 |
| 20260505035729 | 17 | 53 | 0.0 | 1.6 | 0.00 | 0.00 | 0.00 | 55 | 1010.1 |
| 20260505035224 | 17 | 286 | 0.0 | 3.2 | 0.00 | 0.00 | 0.00 | 56 | 1010.3 |
| 20260505034722 | 17 | 24 | 1.6 | 4.8 | 0.00 | 0.00 | 0.00 | 56 | 1010.3 |
| 20260505034218 | 17 | 339 | 1.6 | 4.8 | 0.00 | 0.00 | 0.00 | 55 | 1010.6 |
| 20260505033715 | 17 | 331 | 1.6 | 3.2 | 0.00 | 0.00 | 0.00 | 55 | 1010.1 |
| 20260505033213 | 17 | 0 | 0.0 | 3.2 | 0.00 | 0.00 | 0.00 | 54 | 1010.2 |
| 20260505032711 | 17 | 329 | 0.0 | 1.6 | 0.00 | 0.00 | 0.00 | 54 | 1010.0 |
| 20260505032206 | 17 | 164 | 1.6 | 4.8 | 0.00 | 0.00 | 0.00 | 54 | 1010.2 |
| 20260505031704 | 17 | 28 | 3.2 | 3.2 | 0.00 | 0.00 | 0.00 | 54 | 1010.1 |
| 20260505031200 | 17 | 347 | 0.0 | 1.6 | 0.00 | 0.00 | 0.00 | 55 | 1010.2 |
| 20260505030657 | 16 | 15 | 1.6 | 3.2 | 0.00 | 0.00 | 0.00 | 54 | 1010.3 |
| 20260505030153 | 17 | 29 | 1.6 | 3.2 | 0.00 | 0.00 | 0.00 | 54 | 1010.5 |
| 20260505025649 | 17 | 340 | 0.0 | 3.2 | 0.00 | 0.00 | 0.00 | 53 | 1010.2 |
| 20260505025148 | 17 | 30 | 1.6 | 3.2 | 0.00 | 0.00 | 0.00 | 53 | 1010.2 |
| 20260505024645 | 17 | 29 | 1.6 | 3.2 | 0.00 | 0.00 | 0.00 | 52 | 1010.1 |
| 20260505024142 | 17 | 30 | 1.6 | 3.2 | 0.00 | 0.00 | 0.00 | 52 | 1010.1 |
| 20260505023639 | 17 | 33 | 3.2 | 3.2 | 0.00 | 0.00 | 0.00 | 52 | 1009.9 |
| 20260505023137 | 17 | 60 | 0.0 | 3.2 | 0.00 | 0.00 | 0.00 | 51 | 1009.8 |
| 20260505022634 | 17 | 211 | 3.2 | 4.8 | 0.00 | 0.00 | 0.00 | 51 | 1009.9 |
| 20260505022131 | 17 | 53 | 1.6 | 6.4 | 0.00 | 0.00 | 0.00 | 50 | 1010.2 |
| 20260505021627 | 17 | 165 | 0.0 | 3.2 | 0.00 | 0.00 | 0.00 | 50 | 1009.9 |
| 20260505021124 | 16 | 245 | 3.2 | 3.2 | 0.00 | 0.00 | 0.00 | 51 | 1010.3 |
| 20260505020620 | 16 | 49 | 3.2 | 3.2 | 0.00 | 0.00 | 0.00 | 51 | 1010.2 |
| 20260505020116 | 16 | 46 | 3.2 | 3.2 | 0.00 | 0.00 | 0.00 | 51 | 1009.9 |
| 20260505015613 | 16 | 37 | 0.0 | 4.8 | 0.00 | 0.00 | 0.00 | 53 | 1010.2 |
| 20260505015110 | 17 | 34 | 3.2 | 3.2 | 0.00 | 0.00 | 0.00 | 51 | 1009.9 |
| 20260505014607 | 16 | 31 | 3.2 | 4.8 | 0.00 | 0.00 | 0.00 | 51 | 1010.1 |
| 20260505014104 | 16 | 12 | 3.2 | 4.8 | 0.00 | 0.00 | 0.00 | 52 | 1009.9 |
| 20260505013601 | 16 | 40 | 3.2 | 3.2 | 0.00 | 0.00 | 0.00 | 51 | 1009.9 |
| 20260505013058 | 16 | 25 | 1.6 | 4.8 | 0.00 | 0.00 | 0.00 | 52 | 1010.0 |
| 20260505012556 | 17 | 68 | 0.0 | 3.2 | 0.00 | 0.00 | 0.00 | 57 | 1009.8 |
| 20260505012053 | 17 | 52 | 3.2 | 4.8 | 0.00 | 0.00 | 0.00 | 51 | 1009.8 |
| 20260505011548 | 17 | 39 | 3.2 | 3.2 | 0.00 | 0.00 | 0.00 | 49 | 1009.9 |
| 20260505011046 | 17 | 15 | 3.2 | 3.2 | 0.00 | 0.00 | 0.00 | 49 | 1010.1 |
| 20260505010541 | 17 | 5 | 3.2 | 3.2 | 0.00 | 0.00 | 0.00 | 48 | 1010.0 |
| 20260505010038 | 18 | 28 | 3.2 | 3.2 | 0.00 | 0.00 | 0.00 | 48 | 1009.8 |
| 20260505005534 | 18 | 35 | 3.2 | 3.2 | 0.00 | 0.00 | 0.00 | 46 | 1009.7 |
| 20260505005032 | 18 | 37 | 3.2 | 3.2 | 0.00 | 0.00 | 0.00 | 45 | 1009.7 |
| 20260505004529 | 18 | 69 | 0.0 | 3.2 | 0.00 | 0.00 | 0.00 | 44 | 1009.5 |
| 20260505004026 | 18 | 345 | 0.0 | 4.8 | 0.00 | 0.00 | 0.00 | 46 | 1009.6 |
| 20260505003523 | 19 | 20 | 1.6 | 4.8 | 0.00 | 0.00 | 0.00 | 45 | 1009.4 |
| 20260505003020 | 20 | 66 | 3.2 | 3.2 | 0.00 | 0.00 | 0.00 | 42 | 1009.3 |
| 20260505002515 | 20 | 43 | 3.2 | 3.2 | 0.00 | 0.00 | 0.00 | 41 | 1009.3 |
| 20260505002014 | 20 | 211 | 3.2 | 4.8 | 0.00 | 0.00 | 0.00 | 41 | 1009.2 |
| 20260505001511 | 20 | 132 | 0.0 | 3.2 | 0.00 | 0.00 | 0.00 | 41 | 1009.2 |
| 20260505001008 | 20 | 52 | 0.0 | 3.2 | 0.00 | 0.00 | 0.00 | 41 | 1009.3 |
| 20260505000506 | 20 | 73 | 3.2 | 3.2 | 0.00 | 0.00 | 0.00 | 40 | 1009.3 |
| 20260505000003 | 21 | 172 | 0.0 | 3.2 | 0.00 | 0.00 | 0.00 | 40 | 1009.3 |
| 20260504235500 | 21 | 255 | 0.0 | 3.2 | 0.00 | 0.00 | 0.00 | 40 | 1009.4 |
| 20260504234956 | 21 | 72 | 0.0 | 6.4 | 0.00 | 0.00 | 0.00 | 39 | 1009.2 |
| 20260504234453 | 21 | 200 | 3.2 | 14.5 | 0.00 | 0.00 | 0.00 | 39 | 1009.0 |
| 20260504233950 | 21 | 195 | 3.2 | 8.0 | 0.00 | 0.00 | 0.00 | 39 | 1009.3 |
| 20260504233445 | 21 | 277 | 1.6 | 8.0 | 0.00 | 0.00 | 0.00 | 39 | 1009.3 |
| 20260504232943 | 21 | 208 | 1.6 | 4.8 | 0.00 | 0.00 | 0.00 | 38 | 1009.2 |
| 20260504232440 | 21 | 71 | 1.6 | 6.4 | 0.00 | 0.00 | 0.00 | 38 | 1009.3 |
| 20260504231937 | 21 | 115 | 6.4 | 8.0 | 0.00 | 0.00 | 0.00 | 38 | 1009.4 |
| 20260504231433 | 21 | 102 | 1.6 | 9.7 | 0.00 | 0.00 | 0.00 | 39 | 1009.4 |
| 20260504230929 | 21 | 198 | 3.2 | 8.0 | 0.00 | 0.00 | 0.00 | 38 | 1009.3 |
| 20260504230426 | 22 | 86 | 3.2 | 12.9 | 0.00 | 0.00 | 0.00 | 37 | 1009.3 |
| 20260504225926 | 22 | 224 | 6.4 | 8.0 | 0.00 | 0.00 | 0.00 | 37 | 1009.2 |
| 20260504225422 | 22 | 256 | 3.2 | 9.7 | 0.00 | 0.00 | 0.00 | 38 | 1009.2 |
| 20260504224919 | 22 | 277 | 3.2 | 11.3 | 0.00 | 0.00 | 0.00 | 37 | 1009.3 |
| 20260504224415 | 22 | 165 | 3.2 | 12.9 | 0.00 | 0.00 | 0.00 | 37 | 1009.6 |
| 20260504223913 | 22 | 242 | 4.8 | 14.5 | 0.00 | 0.00 | 0.00 | 37 | 1009.3 |
| 20260504223408 | 22 | 209 | 8.0 | 12.9 | 0.00 | 0.00 | 0.00 | 37 | 1009.4 |
| 20260504222904 | 22 | 274 | 6.4 | 8.0 | 0.00 | 0.00 | 0.00 | 37 | 1009.4 |
| 20260504222402 | 22 | 173 | 4.8 | 14.5 | 0.00 | 0.00 | 0.00 | 38 | 1009.5 |
| 20260504221900 | 22 | 207 | 4.8 | 8.0 | 0.00 | 0.00 | 0.00 | 38 | 1009.1 |
| 20260504221356 | 22 | 209 | 4.8 | 9.7 | 0.00 | 0.00 | 0.00 | 37 | 1009.5 |
| 20260504220854 | 22 | 216 | 17.7 | 19.3 | 0.00 | 0.00 | 0.00 | 36 | 1009.5 |
| 20260504220350 | 23 | 207 | 4.8 | 17.7 | 0.00 | 0.00 | 0.00 | 36 | 1009.7 |
| 20260504215847 | 23 | 202 | 6.4 | 16.1 | 0.00 | 0.00 | 0.00 | 35 | 1009.5 |
| 20260504215344 | 23 | 208 | 6.4 | 19.3 | 0.00 | 0.00 | 0.00 | 35 | 1009.6 |
| 20260504214840 | 23 | 199 | 6.4 | 11.3 | 0.00 | 0.00 | 0.00 | 35 | 1009.4 |
| 20260504214337 | 23 | 220 | 4.8 | 11.3 | 0.00 | 0.00 | 0.00 | 36 | 1009.6 |
| 20260504213833 | 23 | 216 | 9.7 | 22.5 | 0.00 | 0.00 | 0.00 | 35 | 1009.4 |
| 20260504213329 | 23 | 221 | 4.8 | 8.0 | 0.00 | 0.00 | 0.00 | 36 | 1009.4 |
| 20260504212827 | 23 | 209 | 1.6 | 20.9 | 0.00 | 0.00 | 0.00 | 36 | 1009.4 |
| 20260504212323 | 23 | 283 | 8.0 | 11.3 | 0.00 | 0.00 | 0.00 | 35 | 1009.6 |
| 20260504211821 | 23 | 282 | 9.7 | 19.3 | 0.00 | 0.00 | 0.00 | 36 | 1009.5 |
| 20260504211316 | 23 | 194 | 11.3 | 19.3 | 0.00 | 0.00 | 0.00 | 35 | 1009.4 |
| 20260504210814 | 23 | 153 | 6.4 | 20.9 | 0.00 | 0.00 | 0.00 | 34 | 1009.5 |
| 20260504210311 | 23 | 153 | 4.8 | 6.4 | 0.00 | 0.00 | 0.00 | 35 | 1009.4 |
| 20260504205809 | 23 | 266 | 3.2 | 20.9 | 0.00 | 0.00 | 0.00 | 35 | 1009.4 |
| 20260504205306 | 23 | 188 | 4.8 | 14.5 | 0.00 | 0.00 | 0.00 | 36 | 1009.5 |
| 20260504204804 | 23 | 226 | 11.3 | 17.7 | 0.00 | 0.00 | 0.00 | 35 | 1009.4 |
| 20260504204302 | 23 | 213 | 11.3 | 11.3 | 0.00 | 0.00 | 0.00 | 35 | 1009.4 |
| 20260504203801 | 23 | 216 | 4.8 | 17.7 | 0.00 | 0.00 | 0.00 | 35 | 1009.5 |
| 20260504203258 | 23 | 196 | 6.4 | 16.1 | 0.00 | 0.00 | 0.00 | 35 | 1009.5 |
| 20260504202758 | 23 | 133 | 9.7 | 12.9 | 0.00 | 0.00 | 0.00 | 36 | 1009.6 |
| 20260504202256 | 22 | 183 | 9.7 | 14.5 | 0.00 | 0.00 | 0.00 | 35 | 1009.7 |
| 20260504201753 | 23 | 226 | 8.0 | 24.1 | 0.00 | 0.00 | 0.00 | 34 | 1009.5 |
| 20260504201250 | 23 | 211 | 3.2 | 14.5 | 0.00 | 0.00 | 0.00 | 36 | 1009.7 |
| 20260504200748 | 23 | 166 | 3.2 | 17.7 | 0.00 | 0.00 | 0.00 | 38 | 1009.6 |
| 20260504200243 | 23 | 225 | 3.2 | 16.1 | 0.00 | 0.00 | 0.00 | 35 | 1010.0 |
| 20260504195740 | 22 | 113 | 1.6 | 11.3 | 0.00 | 0.00 | 0.00 | 35 | 1010.1 |
| 20260504195236 | 22 | 225 | 9.7 | 27.4 | 0.00 | 0.00 | 0.00 | 36 | 1010.2 |
| 20260504194733 | 22 | 218 | 12.9 | 19.3 | 0.00 | 0.00 | 0.00 | 35 | 1010.0 |
| 20260504194229 | 22 | 177 | 3.2 | 14.5 | 0.00 | 0.00 | 0.00 | 35 | 1010.2 |
| 20260504193726 | 22 | 222 | 12.9 | 25.7 | 0.00 | 0.00 | 0.00 | 36 | 1010.3 |
| 20260504193223 | 22 | 143 | 6.4 | 17.7 | 0.00 | 0.00 | 0.00 | 38 | 1010.3 |
| 20260504192721 | 22 | 218 | 9.7 | 14.5 | 0.00 | 0.00 | 0.00 | 35 | 1010.5 |
| 20260504192219 | 22 | 174 | 8.0 | 19.3 | 0.00 | 0.00 | 0.00 | 35 | 1010.8 |
| 20260504191718 | 22 | 47 | 1.6 | 16.1 | 0.00 | 0.00 | 0.00 | 35 | 1010.8 |
| 20260504191214 | 22 | 314 | 4.8 | 14.5 | 0.00 | 0.00 | 0.00 | 34 | 1011.0 |
| 20260504190709 | 22 | 235 | 3.2 | 9.7 | 0.00 | 0.00 | 0.00 | 36 | 1011.1 |
| 20260504190206 | 22 | 318 | 6.4 | 11.3 | 0.00 | 0.00 | 0.00 | 37 | 1010.9 |
| 20260504185703 | 21 | 82 | 1.6 | 20.9 | 0.00 | 0.00 | 0.00 | 38 | 1011.1 |
| 20260504185159 | 21 | 226 | 8.0 | 22.5 | 0.00 | 0.00 | 0.00 | 35 | 1010.9 |
| 20260504184655 | 22 | 191 | 3.2 | 14.5 | 0.00 | 0.00 | 0.00 | 36 | 1011.3 |
| 20260504184150 | 21 | 198 | 8.0 | 9.7 | 0.00 | 0.00 | 0.00 | 38 | 1011.5 |
| 20260504183648 | 22 | 234 | 12.9 | 20.9 | 0.00 | 0.00 | 0.00 | 36 | 1011.4 |
| 20260504183145 | 21 | 135 | 3.2 | 19.3 | 0.00 | 0.00 | 0.00 | 38 | 1011.4 |
| 20260504182643 | 21 | 107 | 6.4 | 9.7 | 0.00 | 0.00 | 0.00 | 36 | 1011.6 |
| 20260504182140 | 22 | 223 | 11.3 | 16.1 | 0.00 | 0.00 | 0.00 | 37 | 1011.6 |
| 20260504181637 | 21 | 334 | 3.2 | 8.0 | 0.00 | 0.00 | 0.00 | 34 | 1011.7 |
| 20260504181135 | 21 | 213 | 12.9 | 16.1 | 0.00 | 0.00 | 0.00 | 37 | 1011.7 |
| 20260504180634 | 21 | 186 | 6.4 | 11.3 | 0.00 | 0.00 | 0.00 | 37 | 1011.8 |
| 20260504180132 | 21 | 194 | 3.2 | 8.0 | 0.00 | 0.00 | 0.00 | 36 | 1012.2 |
| 20260504175629 | 21 | 214 | 9.7 | 14.5 | 0.00 | 0.00 | 0.00 | 37 | 1011.8 |
| 20260504175125 | 21 | 211 | 8.0 | 16.1 | 0.00 | 0.00 | 0.00 | 37 | 1012.1 |
| 20260504174624 | 21 | 223 | 9.7 | 20.9 | 0.00 | 0.00 | 0.00 | 36 | 1012.0 |
| 20260504174120 | 20 | 224 | 6.4 | 14.5 | 0.00 | 0.00 | 0.00 | 36 | 1011.7 |
| 20260504173617 | 20 | 131 | 6.4 | 11.3 | 0.00 | 0.00 | 0.00 | 37 | 1012.0 |
| 20260504173115 | 21 | 186 | 9.7 | 24.1 | 0.00 | 0.00 | 0.00 | 35 | 1012.2 |
| 20260504172611 | 20 | 184 | 3.2 | 8.0 | 0.00 | 0.00 | 0.00 | 39 | 1012.3 |
| 20260504172108 | 20 | 229 | 11.3 | 16.1 | 0.00 | 0.00 | 0.00 | 37 | 1012.0 |
| 20260504171604 | 20 | 229 | 14.5 | 16.1 | 0.00 | 0.00 | 0.00 | 35 | 1012.2 |
| 20260504171101 | 20 | 220 | 6.4 | 24.1 | 0.00 | 0.00 | 0.00 | 36 | 1012.2 |
| 20260504170556 | 20 | 174 | 3.2 | 14.5 | 0.00 | 0.00 | 0.00 | 37 | 1012.4 |
| 20260504150941 | 18 | 22 | 1.6 | 8.0 | 0.00 | 0.00 | 0.00 | 39 | 1013.6 |
| 20260504150437 | 18 | 233 | 11.3 | 20.9 | 0.00 | 0.00 | 0.00 | 37 | 1013.7 |
| 20260504140904 | 16 | 243 | 12.9 | 19.3 | 0.00 | 0.00 | 0.00 | 39 | 1014.1 |
| 20260504140400 | 16 | 204 | 11.3 | 17.7 | 0.00 | 0.00 | 0.00 | 38 | 1014.1 |